Meteo pe oră la Northampton

Astăzi, 3 Decembrie, Joi

Timp Temperatura Precipitaţii Vânt Presiune Umiditate
00:00 +2°C° 0 mm 3 m/s 746 mmHg 90%
01:00 +1°C° 0 mm 4 m/s 745 mmHg 90%
02:00 +1°C° 0 mm 4 m/s 744 mmHg 90%
03:00 +1°C° 0 mm 4 m/s 743 mmHg 90%
04:00 +3°C° 0.5 mm 4 m/s 741 mmHg 92%
05:00 +3°C° 0.5 mm 4 m/s 740 mmHg 94%
06:00 +3°C° 0 mm 4 m/s 739 mmHg 95%
07:00 +2°C° 0.9 mm 5 m/s 737 mmHg 95%
08:00 +2°C° 0.9 mm 5 m/s 736 mmHg 95%
09:00 +3°C° 0.9 mm 5 m/s 735 mmHg 95%
10:00 +3°C° 0.6 mm 5 m/s 733 mmHg 95%
11:00 +4°C° 0.6 mm 4 m/s 732 mmHg 95%
12:00 +4°C° 0.6 mm 3 m/s 730 mmHg 95%
13:00 +4°C° 0.5 mm 3 m/s 729 mmHg 96%
14:00 +4°C° 0.5 mm 3 m/s 727 mmHg 96%
15:00 +5°C° 0.5 mm 2 m/s 726 mmHg 96%
16:00 +5°C° 0.4 mm 2 m/s 725 mmHg 96%
17:00 +5°C° 0.4 mm 2 m/s 724 mmHg 96%
18:00 +5°C° 0.4 mm 2 m/s 723 mmHg 97%
19:00 +5°C° 0.4 mm 2 m/s 722 mmHg 96%
20:00 +5°C° 0.4 mm 2 m/s 722 mmHg 96%
21:00 +6°C° 0.4 mm 1 m/s 721 mmHg 96%
22:00 +5°C° 0 mm 1 m/s 721 mmHg 96%
23:00 +5°C° 0 mm 1 m/s 721 mmHg 96%

Mâine, 4 Decembrie, Vineri

Timp Temperatura Precipitaţii Vânt Presiune Umiditate
00:00 +5°C° 0 mm 1 m/s 720 mmHg 96%
01:00 +5°C° 0 mm 1 m/s 720 mmHg 96%
02:00 +5°C° 0 mm 1 m/s 720 mmHg 96%
03:00 +4°C° 0 mm 2 m/s 719 mmHg 96%
04:00 +4°C° 0.1 mm 2 m/s 719 mmHg 96%
05:00 +3°C° 0.1 mm 3 m/s 720 mmHg 95%
06:00 +3°C° 0.1 mm 3 m/s 720 mmHg 95%
07:00 +3°C° 0.8 mm 3 m/s 720 mmHg 95%
08:00 +3°C° 0.8 mm 4 m/s 720 mmHg 96%
09:00 +3°C° 0.8 mm 4 m/s 720 mmHg 96%
10:00 +1°C° 0.4 mm 4 m/s 721 mmHg 94%
11:00 +1°C° 0.4 mm 4 m/s 721 mmHg 93%
12:00 +2°C° 0.4 mm 3 m/s 721 mmHg 92%
13:00 +1°C° 0.1 mm 4 m/s 722 mmHg 93%
14:00 +1°C° 0.1 mm 4 m/s 722 mmHg 94%
15:00 +1°C° 0.1 mm 5 m/s 722 mmHg 94%
16:00 +1°C° 0 mm 4 m/s 723 mmHg 93%
17:00 +1°C° 0 mm 4 m/s 723 mmHg 91%
18:00 +1°C° 0 mm 4 m/s 724 mmHg 90%
19:00 +1°C° 0 mm 4 m/s 725 mmHg 90%
20:00 +1°C° 0 mm 5 m/s 725 mmHg 89%
21:00 0°C° 0 mm 5 m/s 726 mmHg 89%
22:00 0°C° 0 mm 4 m/s 727 mmHg 88%
23:00 0°C° 0 mm 4 m/s 728 mmHg 87%

Poimâine, 5 Decembrie, Sâmbătă

Timp Temperatura Precipitaţii Vânt Presiune Umiditate
00:00 0°C° 0 mm 4 m/s 728 mmHg 86%
01:00 0°C° 0 mm 4 m/s 729 mmHg 87%
02:00 +1°C° 0 mm 3 m/s 730 mmHg 89%
03:00 +1°C° 0 mm 3 m/s 731 mmHg 90%
04:00 +1°C° 0 mm 3 m/s 731 mmHg 91%
05:00 0°C° 0 mm 3 m/s 732 mmHg 92%
06:00 0°C° 0 mm 3 m/s 733 mmHg 92%
07:00 +1°C° 0 mm 3 m/s 734 mmHg 93%
08:00 +1°C° 0 mm 3 m/s 734 mmHg 94%
09:00 +1°C° 0 mm 3 m/s 735 mmHg 94%
10:00 +1°C° 0 mm 4 m/s 735 mmHg 91%
11:00 +3°C° 0 mm 4 m/s 736 mmHg 89%
12:00 +4°C° 0 mm 4 m/s 736 mmHg 86%
13:00 +4°C° 0 mm 4 m/s 737 mmHg 85%
14:00 +4°C° 0 mm 4 m/s 737 mmHg 85%
15:00 +3°C° 0 mm 4 m/s 737 mmHg 85%
16:00 +3°C° 0 mm 3 m/s 738 mmHg 86%
17:00 +3°C° 0 mm 2 m/s 738 mmHg 87%
18:00 +3°C° 0 mm 2 m/s 739 mmHg 89%
19:00 +3°C° 0 mm 2 m/s 739 mmHg 90%
20:00 +3°C° 0 mm 2 m/s 739 mmHg 90%
21:00 +4°C° 0 mm 1 m/s 739 mmHg 91%
22:00 +3°C° 0 mm 1 m/s 740 mmHg 92%
23:00 +3°C° 0 mm 1 m/s 740 mmHg 92%

6 Decembrie, Duminică

Timp Temperatura Precipitaţii Vânt Presiune Umiditate
00:00 +3°C° 0 mm 1 m/s 740 mmHg 93%
01:00 +2°C° 0 mm 2 m/s 740 mmHg 93%
02:00 +2°C° 0 mm 2 m/s 740 mmHg 94%
03:00 +2°C° 0 mm 2 m/s 740 mmHg 95%
04:00 +2°C° 0.1 mm 2 m/s 740 mmHg 96%
05:00 +2°C° 0.1 mm 2 m/s 740 mmHg 96%
06:00 +2°C° 0.1 mm 2 m/s 740 mmHg 97%
07:00 +3°C° 0.1 mm 2 m/s 740 mmHg 96%
08:00 +3°C° 0.1 mm 2 m/s 740 mmHg 96%
09:00 +3°C° 0.1 mm 2 m/s 741 mmHg 96%
10:00 +3°C° 0 mm 2 m/s 741 mmHg 96%
11:00 +4°C° 0 mm 2 m/s 741 mmHg 95%
12:00 +4°C° 0 mm 2 m/s 741 mmHg 94%
13:00 +4°C° 0 mm 2 m/s 741 mmHg 94%
14:00 +4°C° 0 mm 2 m/s 741 mmHg 94%
15:00 +5°C° 0 mm 1 m/s 742 mmHg 94%
16:00 +4°C° 0 mm 2 m/s 742 mmHg 95%
17:00 +3°C° 0 mm 2 m/s 742 mmHg 95%
18:00 +3°C° 0 mm 2 m/s 743 mmHg 95%
19:00 +3°C° 0 mm 2 m/s 743 mmHg 95%
20:00 +3°C° 0 mm 2 m/s 743 mmHg 95%
21:00 +3°C° 0 mm 2 m/s 743 mmHg 95%
22:00 +4°C° 0 mm 1 m/s 742 mmHg 95%
23:00 +3°C° 0 mm 1 m/s 742 mmHg 95%

7 Decembrie, Luni

Timp Temperatura Precipitaţii Vânt Presiune Umiditate
00:00 +3°C° 0 mm 1 m/s 742 mmHg 95%
01:00 +3°C° 0 mm 1 m/s 742 mmHg 95%
02:00 +2°C° 0 mm 2 m/s 742 mmHg 95%
03:00 +2°C° 0 mm 2 m/s 742 mmHg 95%
04:00 +2°C° 0 mm 2 m/s 742 mmHg 95%
05:00 +2°C° 0 mm 2 m/s 742 mmHg 94%
06:00 +1°C° 0 mm 2 m/s 742 mmHg 94%
07:00 +1°C° 0 mm 2 m/s 742 mmHg 95%
08:00 +1°C° 0 mm 2 m/s 742 mmHg 95%
09:00 +1°C° 0 mm 2 m/s 742 mmHg 95%
10:00 +2°C° 0 mm 2 m/s 741 mmHg 93%
11:00 +3°C° 0 mm 2 m/s 741 mmHg 91%
12:00 +4°C° 0 mm 2 m/s 741 mmHg 88%
13:00 +4°C° 0 mm 2 m/s 741 mmHg 89%
14:00 +5°C° 0 mm 1 m/s 741 mmHg 90%
15:00 +5°C° 0 mm 1 m/s 741 mmHg 92%
16:00 +4°C° 0 mm 1 m/s 741 mmHg 92%
17:00 +2°C° 0 mm 2 m/s 741 mmHg 93%
18:00 +2°C° 0 mm 2 m/s 740 mmHg 94%
19:00 +2°C° 0 mm 2 m/s 740 mmHg 94%
20:00 +1°C° 0 mm 2 m/s 741 mmHg 94%
21:00 +2°C° 0 mm 1 m/s 741 mmHg 94%
22:00 +1°C° 0 mm 2 m/s 741 mmHg 94%
23:00 +1°C° 0 mm 2 m/s 741 mmHg 94%

8 Decembrie, Marţi

Timp Temperatura Precipitaţii Vânt Presiune Umiditate
00:00 +1°C° 0 mm 2 m/s 741 mmHg 94%
01:00 +1°C° 0 mm 2 m/s 741 mmHg 95%
02:00 +1°C° 0 mm 2 m/s 741 mmHg 95%
03:00 +1°C° 0 mm 2 m/s 741 mmHg 95%
04:00 +1°C° 0 mm 2 m/s 741 mmHg 95%
05:00 +2°C° 0 mm 2 m/s 742 mmHg 95%
06:00 +2°C° 0 mm 2 m/s 742 mmHg 94%
07:00 +2°C° 0 mm 2 m/s 743 mmHg 94%
08:00 +2°C° 0 mm 2 m/s 743 mmHg 93%
09:00 +2°C° 0 mm 2 m/s 744 mmHg 93%
10:00 +3°C° 0 mm 2 m/s 744 mmHg 90%
11:00 +4°C° 0 mm 2 m/s 745 mmHg 87%
12:00 +4°C° 0 mm 3 m/s 745 mmHg 84%
13:00 +4°C° 0 mm 2 m/s 745 mmHg 86%
14:00 +4°C° 0 mm 2 m/s 746 mmHg 89%
15:00 +4°C° 0 mm 2 m/s 746 mmHg 91%
16:00 +3°C° 0 mm 2 m/s 746 mmHg 92%
17:00 +2°C° 0 mm 2 m/s 747 mmHg 93%
18:00 +2°C° 0 mm 2 m/s 747 mmHg 93%
19:00 +2°C° 0 mm 2 m/s 748 mmHg 93%
20:00 +1°C° 0 mm 2 m/s 748 mmHg 93%
21:00 +1°C° 0 mm 2 m/s 749 mmHg 93%
22:00 +1°C° 0 mm 2 m/s 749 mmHg 93%
23:00 +1°C° 0 mm 2 m/s 749 mmHg 93%
Arată mai mult

Formular de consimțământ

Meteoprog și furnizorii noștri de servicii pot stoca și accesa date personale, precum cookies, identificatori de dispozitiv sau alte tehnologii similare pe dispozitivul dumneavoastră și procesa astfel de date pentru a personaliza conținutul și reclamele, dar și pentru a oferi caracteristici de social media și pentru a analiza traficul.

  • Stocarea și/sau accesarea informațiilor pe dispozitivul dumneavoastră

    Cookies, identificatori de dispozitiv sau alte informații pot fi stocate sau accesate pe dispozitiv în scopurile indicate mai sus.

  • Reclame și conținut personalizat, evaluarea reclamelor și a conținutului, informații despre audiențe și dezvoltarea produselor

    Reclamele și conținutul pot fi personalizate pe baza unui profil. Pot fi adăugate date suplimentare pentru a personaliza mai bine reclamele și conținutul. Performanța reclamelor și conținutului poate fi măsurată. Pot fi obținute informații despre utilizatorii care au văzut reclamele și conținutul. Aceste date pot fi utilizate pentru a dezvolta sau îmbunătăți experiența utilizatorilor, sistemele și software-ul.

Dând clic pe ‘Sunt de acord’, permiteți utilizarea cookie-urilor menționate, a identificatorilor de dispozitiv, balizelor web sau altor tehnologii similare. Setările pot fi modificate din browser-ul dispozitivului dumneavoastră.

În anumite scopuri, interesele legitime pot prima asupra consimțământului. Puteți citi mai multe informații în acest sens în Politica privind Confidențialitatea Datelor și Cookie.